This is the latest recevied weather packets stored in our database for station/object EW1958. If no packets are shown the sender has not sent any weather packets the latest 10 day(s).
| Time | Temp. | Humidity | Pressure | Rain* | Wind** | Luminosity | Snow |
|---|---|---|---|---|---|---|---|
| 1777578311 | 22.22° C | 51% | 1021.4 hPa | 0 mm | - | - | - |
| 1777578136 | 22.78° C | 54% | 1021.5 hPa | 0 mm | - | - | - |
| 1777577844 | 21.67° C | 56% | 1021.6 hPa | 0 mm | - | - | - |
| 1777577813 | 22.22° C | 53% | 1021.6 hPa | 0 mm | - | - | - |
| 1777577204 | 21.67° C | 55% | 1021.6 hPa | 0 mm | - | - | - |
| 1777576773 | 21.67° C | 56% | 1021.7 hPa | 0 mm | - | - | - |
| 1777576475 | 21.67° C | 53% | 1021.7 hPa | 0 mm | - | - | - |
| 1777576174 | 22.22° C | 54% | 1021.8 hPa | 0 mm | - | - | - |
| 1777575874 | 22.22° C | 58% | 1021.8 hPa | 0 mm | - | - | - |
| 1777575573 | 21.67° C | 57% | 1021.8 hPa | 0 mm | - | - | - |
| 1777575274 | 21.67° C | 59% | 1021.8 hPa | 0 mm | - | - | - |
| 1777574974 | 21.67° C | 56% | 1021.9 hPa | 0 mm | - | - | - |
| 1777574675 | 21.67° C | 58% | 1021.9 hPa | 0 mm | - | - | - |
| 1777574528 | 21.67° C | 57% | 1022 hPa | 0 mm | - | - | - |
| 1777574074 | 21.67° C | 60% | 1022.1 hPa | 0 mm | - | - | - |
| 1777573791 | 21.11° C | 60% | 1022.3 hPa | 0 mm | - | - | - |
| 1777573780 | 21.11° C | 61% | 1022.2 hPa | 0 mm | - | - | - |
| 1777573182 | 20.56° C | 60% | 1022.4 hPa | 0 mm | - | - | - |
| 1777573175 | 20.56° C | 62% | 1022.3 hPa | 0 mm | - | - | - |
| 1777572698 | 20.56° C | 63% | 1022.5 hPa | 0 mm | - | - | - |
| 1777572267 | 20.56° C | 62% | 1022.6 hPa | 0 mm | - | - | - |
| 1777571969 | 20.56° C | 66% | 1022.6 hPa | 0 mm | - | - | - |
| 1777571797 | 20° C | 65% | 1022.6 hPa | 0 mm | - | - | - |
| 1777571367 | 20° C | 66% | 1022.7 hPa | 0 mm | - | - | - |
| 1777571069 | 19.44° C | 66% | 1022.8 hPa | 0 mm | - | - | - |
* Rain latest hour (hover to see other rain measurements)
** Current wind speed in m/s (hover to see current wind gust speed)